Weather Service Report


084 
ASUS44 KLZK 300005
RWRLZK

WEATHER ROUNDUP FOR ARKANSAS
NATIONAL WEATHER SERVICE LITTLE ROCK AR
700 PM CDT WED JUL 29 2015

NOTE: "FAIR" INDICATES FEW OR NO CLOUDS BELOW 12,000 FEET WITH NO
SIGNIFICANT WEATHER AND/OR OBSTRUCTIONS TO VISIBILITY.

ARZ001-003-010-029-300100-
NORTHWEST ARKANSAS
  
CITY           SKY/WX    TMP DP  RH WIND       PRES   REMARKS
FAYETTEVILLE   SUNNY     89  73  59 W3        30.05S HX  97           
6HR MIN TEMP:  88; 6HR MAX TEMP:  93;                                

FORT SMITH     SUNNY     95  68  41 NE8       29.98F HX  99           
6HR MIN TEMP:  95; 6HR MAX TEMP:  98;                                

HARRISON       MOSUNNY   87  74  64 NW3       30.06S HX  95           
6HR MIN TEMP:  87; 6HR MAX TEMP:  93;                                

BENTONVILLE    SUNNY     91  68  46 W5        30.08R HX  95           
6HR MIN TEMP:  90; 6HR MAX TEMP:  93;                                

ROGERS         SUNNY     91  72  53 NW3       30.07S HX  98           
6HR MIN TEMP:  90; 6HR MAX TEMP:  94;                                

SILOAM SPGS    SUNNY     91  70  49 W3        30.05R HX  97           
6HR MIN TEMP:  90; 6HR MAX TEMP:  95;                                

HIGHFILL       SUNNY     91  73  55 NW5       30.06S HX  99           
6HR MIN TEMP:  91; 6HR MAX TEMP:  95;                                

SPRINGDALE     MOSUNNY   91  68  46 CALM      30.08S HX  95           
$$

ARZ004-005-016-300100-
NORTH CENTRAL ARKANSAS
  
CITY           SKY/WX    TMP DP  RH WIND       PRES   REMARKS
BATESVILLE     SUNNY     91  75  59 CALM      29.99S HX 102           
6HR MIN TEMP:  91; 6HR MAX TEMP:  97;                                

FLIPPIN        SUNNY     93  72  49 NW3       30.01S HX 100           
6HR MIN TEMP:  91; 6HR MAX TEMP:  97;                                

MTN HOME       SUNNY     90  76  63 CALM      30.02S HX 101           
6HR MIN TEMP:  90; 6HR MAX TEMP:  93;                                

$$

ARZ040-041-300100-
WEST CENTRAL ARKANSAS
  
CITY           SKY/WX    TMP DP  RH WIND       PRES   REMARKS
MENA           SUNNY     99  64  32 CALM      30.01S HX 101           
MOUNT IDA      SUNNY     96  71  44 CALM      29.98S HX 103           
6HR MIN TEMP:  95; 6HR MAX TEMP: 102;                                

$$

ARZ009-017-025-026-028-300100-
NORTHEAST ARKANSAS
  
CITY           SKY/WX    TMP DP  RH WIND       PRES   REMARKS
JONESBORO      MOSUNNY   92  77  61 NW5       29.96S HX 105           
6HR MIN TEMP:  92; 6HR MAX TEMP:  96;                                

NEWPORT        SUNNY     96  77  54 W6        29.98S HX 110           
6HR MIN TEMP:  96; 6HR MAX TEMP:  99;                                

WALNUT RIDGE   SUNNY     93  73  52 NW9       29.96R HX 102           
6HR MIN TEMP:  93; 6HR MAX TEMP:  99;                                

BLYTHEVILLE    SUNNY     93  82  70 NW5       29.96R HX 116           
6HR MIN TEMP:  92; 6HR MAX TEMP:  97;                                

$$

ARZ022-023-033-042-044-300100-
CENTRAL ARKANSAS
  
CITY           SKY/WX    TMP DP  RH WIND       PRES   REMARKS
LITTLE ROCK    MOSUNNY   96  70  42 S6        29.97R HX 102           
6HR MIN TEMP:  96; 6HR MAX TEMP: 101;                                

N LITTLE ROCK  MOSUNNY   97  74  46 E5        29.97R HX 107           
6HR MIN TEMP:  96; 6HR MAX TEMP: 102;                                

JACKSONVILLE   MOSUNNY   96  75  51 E3        29.97R HX 107           
6HR MIN TEMP:  95; 6HR MAX TEMP: 101;                                

SEARCY         SUNNY     95  74  50 N5        29.99R HX 105           
6HR MIN TEMP:  94; 6HR MAX TEMP: 100;                                

HOT SPRINGS    PTSUNNY   98  68  37 CALM      29.99R HX 103           
6HR MIN TEMP:  97; 6HR MAX TEMP: 102;                                

RUSSELLVILLE   SUNNY     97  68  38 NW5       29.98S HX 102           
6HR MIN TEMP:  95; 6HR MAX TEMP:  99;                                

CLINTON        FAIR      91  81  70 CALM      30.00F HX 110           
$$

ARZ036-300100-
EAST ARKANSAS
  
CITY           SKY/WX    TMP DP  RH WIND       PRES   REMARKS
WEST MEMPHIS   SUNNY     93  81  67 CALM      29.96R HX 113           
6HR MIN TEMP:  93; 6HR MAX TEMP:  98;                                

$$

ARZ050-053-066-070-073-300100-
SOUTHWEST ARKANSAS
  
CITY           SKY/WX    TMP DP  RH WIND       PRES   REMARKS
ARKADELPHIA    FAIR     100  71  39 SW8       29.97R HX 108           
6HR MIN TEMP: 100; 6HR MAX TEMP: 104;                                

CAMDEN         SUNNY     99  70  39 CALM      29.97R HX 105           
TEXARKANA      SUNNY     95  73  48 S5        29.98S HX 104           
6HR MIN TEMP:  95; 6HR MAX TEMP: 100;                                

EL DORADO      SUNNY     97  70  41 CALM      29.98R HX 103           
6HR MIN TEMP:  94; 6HR MAX TEMP: 100;                                

DE QUEEN       SUNNY     96  72  45 SW6       29.95S HX 104           
6HR MIN TEMP:  95; 6HR MAX TEMP:  99;                                

$$

ARZ056-057-069-300100-
SOUTHEAST ARKANSAS
  
CITY           SKY/WX    TMP DP  RH WIND       PRES   REMARKS
PINE BLUFF     SUNNY     96  77  54 SE3       29.97R HX 111           
6HR MIN TEMP:  96; 6HR MAX TEMP: 100;                                

STUTTGART      SUNNY     95  72  46 CALM      29.97S HX 103           
6HR MIN TEMP:  95; 6HR MAX TEMP: 100;                                

MONTICELLO     SUNNY     97  75  49 CALM      29.97S HX 109           
6HR MIN TEMP:  96; 6HR MAX TEMP: 100;                                


$$



Return to Home page


Western Regional Climate Center, wrcc@dri.edu